DMSP 5D-3 F19 DEB

Satellite information

Favourite Embed

Satellite Type and Status

DEBRISIN ORBIT

Key statistics

Satellite DMSP 5D-3 F19 DEB at a glance.

Uptime

4113

Days in orbit

Revolutions

≈ 14.2

Per day

Orbit

SSO

Sun Synchronous Orbit

Inclination

98.7

Latest

Satellite identification and parameters

Extended collection of information and parameters for DMSP 5D-3 F19 DEB.

Object identification

Identified? True

Debris? True

Object name: DMSP 5D-3 F19 DEB

International designator: 2014-015C

Object number (NORAD): 39632

Object ID (CCSDS): 39632

Country: UNITED STATES OF AMERICA (US)

Current information (Y/N): Y

RCS size: SMALL

Orbital parameters

Period: 101.078 minutes

Inclination: 98.6709 deg

SMA: 7187.849 km

Apoapsis: 814.339 km

Periapsis: 805.089 km

RAAN: 198.7707 deg

Eccentricy: 0.0006434

Argument of periapsis: 60.2237 deg

Mean anomaly: 299.9581 deg

Mean motion: 14.24637456 rev/day

Mean motion (dot): 0.00001455 rev/day2

B* drag term: 0.00064452 1/REarth

Two-line elements (TLE)

Creation date: July 6, 2025, 6:05 p.m.

Reference frame: TEME

Reference center: EARTH

Epoch: July 6, 2025, 2:17 p.m. UTC

TLE line 0: 0 DMSP 5D-3 F19 DEB

TLE line 1: 1 39632U 14015C 25187.59565862 .00001455 00000-0 64452-3 0 9992

TLE line 2: 2 39632 98.6709 198.7707 0006434 60.2237 299.9581 14.24637456582527

Live tracking on map

Real-time ground track for satellite DMSP 5D-3 F19 DEB.

In-orbit conjunctions

A list of the most updated potential collisions computed for object DMSP 5D-3 F19 DEB.

Target Orbit TCA Probability of collision Miss distance Type
CZ-6A DEB LEO 2025-01-28 11:42:14 0.0002489647 539.0 (m) DEBRIS
SL-16 R/B LEO 2024-10-05 21:15:21 0.0002461094 193.0 (m) ROCKET BODY

Associated space launch

DMSP-5D3 (Defense Meteorological Satellite Program Block 5D3) is the eleventh and most recent version of the military meteorological satellites of the Defense Meteorological Satellite Program.

DMSP 5D-3 F19 DEB was lifted into orbit during the mission ‘Atlas V 401 | DMSP-5D3 F19’, on board a Atlas V 401 space rocket.

The launch took place on April 3, 2014, 2:46 p.m. from Space Launch Complex 3E.

For more information about the launch, click the button.

Launch to space Atlas V 401 | DMSP-5D3 F19
Atlas V 401 | DMSP-5D3 F19

Agency: N/A

Status: Launch Successful

Launch date: April 3, 2014, 2:46 p.m. UTC

Rocket: Atlas V 401

Launch pad: Space Launch Complex 3E

Location: Vandenberg SFB, CA, USA

...

Latest news about this satellite

There are no fresh news available about this satellite. Check back as we update our databases every day.


Newsletter sign-up

Weekly statistics, charts and insights to help you stay on top of the space industry.